Year,Month,Day,Hour,Minute,Value (Times are PST for temperature in C)
2012,07,14,00,00,14.00
2012,07,14,00,01,14.00
2012,07,14,00,02,14.00
2012,07,14,00,03,14.00
2012,07,14,00,04,14.00
2012,07,14,00,05,14.00
2012,07,14,00,06,14.00
2012,07,14,00,07,14.00
2012,07,14,00,08,14.00
2012,07,14,00,09,14.00
2012,07,14,00,10,14.00
2012,07,14,00,11,14.00
2012,07,14,00,12,14.00
2012,07,14,00,13,14.00
2012,07,14,00,14,14.00
2012,07,14,00,15,14.00
2012,07,14,00,16,14.00
2012,07,14,00,17,14.00
2012,07,14,00,18,14.00
2012,07,14,00,19,14.10
2012,07,14,00,20,14.10
2012,07,14,00,21,14.10
2012,07,14,00,22,14.00
2012,07,14,00,23,14.00
2012,07,14,00,24,14.00
2012,07,14,00,25,14.00
2012,07,14,00,26,14.00
2012,07,14,00,27,14.00
2012,07,14,00,28,14.00
2012,07,14,00,29,14.00
2012,07,14,00,30,14.00
2012,07,14,00,31,14.00
2012,07,14,00,32,14.00
2012,07,14,00,33,14.00
2012,07,14,00,34,13.90
2012,07,14,00,35,13.90
2012,07,14,00,36,13.90
2012,07,14,00,37,13.90
2012,07,14,00,38,13.90
2012,07,14,00,39,13.90
2012,07,14,00,40,13.90
2012,07,14,00,41,13.90
2012,07,14,00,42,13.90
2012,07,14,00,43,13.90
2012,07,14,00,44,13.80
2012,07,14,00,45,13.80
2012,07,14,00,46,13.80
2012,07,14,00,47,13.80
2012,07,14,00,48,13.80
2012,07,14,00,49,13.80
2012,07,14,00,50,13.80
2012,07,14,00,51,13.80
2012,07,14,00,52,13.80
2012,07,14,00,53,13.80
2012,07,14,00,54,13.80
2012,07,14,00,55,13.80
2012,07,14,00,56,13.80
2012,07,14,00,57,13.80
2012,07,14,00,58,13.80
2012,07,14,00,59,13.80
2012,07,14,01,00,13.80
2012,07,14,01,01,13.80
2012,07,14,01,02,13.80
2012,07,14,01,03,13.80
2012,07,14,01,04,13.80
2012,07,14,01,05,13.80
2012,07,14,01,06,13.80
2012,07,14,01,07,13.90
2012,07,14,01,08,13.90
2012,07,14,01,09,13.90
2012,07,14,01,10,13.90
2012,07,14,01,11,13.90
2012,07,14,01,12,13.80
2012,07,14,01,13,13.80
2012,07,14,01,14,13.80
2012,07,14,01,15,13.70
2012,07,14,01,16,13.70
2012,07,14,01,17,13.70
2012,07,14,01,18,13.70
2012,07,14,01,19,13.70
2012,07,14,01,20,13.70
2012,07,14,01,21,13.70
2012,07,14,01,22,13.70
2012,07,14,01,23,13.70
2012,07,14,01,24,13.70
2012,07,14,01,25,13.70
2012,07,14,01,26,13.70
2012,07,14,01,27,13.60
2012,07,14,01,28,13.60
2012,07,14,01,29,13.60
2012,07,14,01,30,13.60
2012,07,14,01,31,13.60
2012,07,14,01,32,13.60
2012,07,14,01,33,13.50
2012,07,14,01,34,13.50
2012,07,14,01,35,13.50
2012,07,14,01,36,13.50
2012,07,14,01,37,13.50
2012,07,14,01,38,13.50
2012,07,14,01,39,13.50
2012,07,14,01,40,13.50
2012,07,14,01,41,13.50
2012,07,14,01,42,13.50
2012,07,14,01,43,13.50
2012,07,14,01,44,13.50
2012,07,14,01,45,13.50
2012,07,14,01,46,13.50
2012,07,14,01,47,13.50
2012,07,14,01,48,13.50
2012,07,14,01,49,13.50
2012,07,14,01,50,13.40
2012,07,14,01,51,13.40
2012,07,14,01,52,13.40
2012,07,14,01,53,13.40
2012,07,14,01,54,13.40
2012,07,14,01,55,13.40
2012,07,14,01,56,13.40
2012,07,14,01,57,13.40
2012,07,14,01,58,13.40
2012,07,14,01,59,13.30
2012,07,14,02,00,13.30
2012,07,14,02,01,13.30
2012,07,14,02,02,13.30
2012,07,14,02,03,13.30
2012,07,14,02,04,13.30
2012,07,14,02,05,13.30
2012,07,14,02,06,13.30
2012,07,14,02,07,13.30
2012,07,14,02,08,13.30
2012,07,14,02,09,13.30
2012,07,14,02,10,13.30
2012,07,14,02,11,13.30
2012,07,14,02,12,13.30
2012,07,14,02,13,13.30
2012,07,14,02,14,13.30
2012,07,14,02,15,13.30
2012,07,14,02,16,13.30
2012,07,14,02,17,13.30
2012,07,14,02,18,13.30
2012,07,14,02,19,13.30
2012,07,14,02,20,13.30
2012,07,14,02,21,13.30
2012,07,14,02,22,13.30
2012,07,14,02,23,13.30
2012,07,14,02,24,13.20
2012,07,14,02,25,13.20
2012,07,14,02,26,13.20
2012,07,14,02,27,13.20
2012,07,14,02,28,13.20
2012,07,14,02,29,13.20
2012,07,14,02,30,13.10
2012,07,14,02,31,13.10
2012,07,14,02,32,13.10
2012,07,14,02,33,13.10
2012,07,14,02,34,13.10
2012,07,14,02,35,13.10
2012,07,14,02,36,13.10
2012,07,14,02,37,13.10
2012,07,14,02,38,13.10
2012,07,14,02,39,13.10
2012,07,14,02,40,13.10
2012,07,14,02,41,13.10
2012,07,14,02,42,13.10
2012,07,14,02,43,13.00
2012,07,14,02,44,13.00
2012,07,14,02,45,13.00
2012,07,14,02,46,13.00
2012,07,14,02,47,13.00
2012,07,14,02,48,13.00
2012,07,14,02,49,13.00
2012,07,14,02,50,13.00
2012,07,14,02,51,13.00
2012,07,14,02,52,13.00
2012,07,14,02,53,13.00
2012,07,14,02,54,13.00
2012,07,14,02,55,13.00
2012,07,14,02,56,13.00
2012,07,14,02,57,13.00
2012,07,14,02,58,13.00
2012,07,14,02,59,13.00
2012,07,14,03,00,13.00
2012,07,14,03,01,13.00
2012,07,14,03,02,13.00
2012,07,14,03,03,13.00
2012,07,14,03,04,13.00
2012,07,14,03,05,13.00
2012,07,14,03,06,13.00
2012,07,14,03,07,13.00
2012,07,14,03,08,13.00
2012,07,14,03,09,13.00
2012,07,14,03,10,13.00
2012,07,14,03,11,13.00
2012,07,14,03,12,13.00
2012,07,14,03,13,13.00
2012,07,14,03,14,13.00
2012,07,14,03,15,13.00
2012,07,14,03,16,12.90
2012,07,14,03,17,12.90
2012,07,14,03,18,12.90
2012,07,14,03,19,12.90
2012,07,14,03,20,12.90
2012,07,14,03,21,12.90
2012,07,14,03,22,12.90
2012,07,14,03,23,12.90
2012,07,14,03,24,12.90
2012,07,14,03,25,12.90
2012,07,14,03,26,12.90
2012,07,14,03,27,12.90
2012,07,14,03,28,12.90
2012,07,14,03,29,12.90
2012,07,14,03,30,12.90
2012,07,14,03,31,12.90
2012,07,14,03,32,12.80
2012,07,14,03,33,12.80
2012,07,14,03,34,12.80
2012,07,14,03,35,12.80
2012,07,14,03,36,12.80
2012,07,14,03,37,12.80
2012,07,14,03,38,12.80
2012,07,14,03,39,12.80
2012,07,14,03,40,12.80
2012,07,14,03,41,12.80
2012,07,14,03,42,12.80
2012,07,14,03,43,12.80
2012,07,14,03,44,12.80
2012,07,14,03,45,12.80
2012,07,14,03,46,12.80
2012,07,14,03,47,12.80
2012,07,14,03,48,12.80
2012,07,14,03,49,12.80
2012,07,14,03,50,12.80
2012,07,14,03,51,12.80
2012,07,14,03,52,12.80
2012,07,14,03,53,12.80
2012,07,14,03,54,12.70
2012,07,14,03,55,12.70
2012,07,14,03,56,12.70
2012,07,14,03,57,12.70
2012,07,14,03,58,12.70
2012,07,14,03,59,12.70
2012,07,14,04,00,12.70
2012,07,14,04,01,12.70
2012,07,14,04,02,12.70
2012,07,14,04,03,12.70
2012,07,14,04,04,12.70
2012,07,14,04,05,12.70
2012,07,14,04,06,12.70
2012,07,14,04,07,12.70
2012,07,14,04,08,12.70
2012,07,14,04,09,12.60
2012,07,14,04,10,12.60
2012,07,14,04,11,12.60
2012,07,14,04,12,12.60
2012,07,14,04,13,12.60
2012,07,14,04,14,12.60
2012,07,14,04,15,12.60
2012,07,14,04,16,12.60
2012,07,14,04,17,12.50
2012,07,14,04,18,12.50
2012,07,14,04,19,12.50
2012,07,14,04,20,12.50
2012,07,14,04,21,12.50
2012,07,14,04,22,12.50
2012,07,14,04,23,12.50
2012,07,14,04,24,12.50
2012,07,14,04,25,12.50
2012,07,14,04,26,12.50
2012,07,14,04,27,12.50
2012,07,14,04,28,12.50
2012,07,14,04,29,12.50
2012,07,14,04,30,12.50
2012,07,14,04,31,12.50
2012,07,14,04,32,12.50
2012,07,14,04,33,12.50
2012,07,14,04,34,12.50
2012,07,14,04,35,12.50
2012,07,14,04,36,12.50
2012,07,14,04,37,12.50
2012,07,14,04,38,12.50
2012,07,14,04,39,12.50
2012,07,14,04,40,12.50
2012,07,14,04,41,12.50
2012,07,14,04,42,12.50
2012,07,14,04,43,12.50
2012,07,14,04,44,12.50
2012,07,14,04,45,12.50
2012,07,14,04,46,12.50
2012,07,14,04,47,12.50
2012,07,14,04,48,12.50
2012,07,14,04,49,12.50
2012,07,14,04,50,12.50
2012,07,14,04,51,12.50
2012,07,14,04,52,12.50
2012,07,14,04,53,12.50
2012,07,14,04,54,12.50
2012,07,14,04,55,12.50
2012,07,14,04,56,12.50
2012,07,14,04,57,12.50
2012,07,14,04,58,12.40
2012,07,14,04,59,12.40
2012,07,14,05,00,12.40
2012,07,14,05,01,12.40
2012,07,14,05,02,12.40
2012,07,14,05,03,12.40
2012,07,14,05,04,12.30
2012,07,14,05,05,12.30
2012,07,14,05,06,12.30
2012,07,14,05,07,12.30
2012,07,14,05,08,12.30
2012,07,14,05,09,12.30
2012,07,14,05,10,12.30
2012,07,14,05,11,12.30
2012,07,14,05,12,12.30
2012,07,14,05,13,12.30
2012,07,14,05,14,12.30
2012,07,14,05,15,12.30
2012,07,14,05,16,12.30
2012,07,14,05,17,12.30
2012,07,14,05,18,12.30
2012,07,14,05,19,12.30
2012,07,14,05,20,12.30
2012,07,14,05,21,12.30
2012,07,14,05,22,12.30
2012,07,14,05,23,12.30
2012,07,14,05,24,12.30
2012,07,14,05,25,12.30
2012,07,14,05,26,12.30
2012,07,14,05,27,12.30
2012,07,14,05,28,12.30
2012,07,14,05,29,12.30
2012,07,14,05,30,12.30
2012,07,14,05,31,12.30
2012,07,14,05,32,12.30
2012,07,14,05,33,12.30
2012,07,14,05,34,12.30
2012,07,14,05,35,12.30
2012,07,14,05,36,12.30
2012,07,14,05,37,12.30
2012,07,14,05,38,12.30
2012,07,14,05,39,12.30
2012,07,14,05,40,12.30
2012,07,14,05,41,12.30
2012,07,14,05,42,12.30
2012,07,14,05,43,12.30
2012,07,14,05,44,12.30
2012,07,14,05,45,12.30
2012,07,14,05,46,12.30
2012,07,14,05,47,12.30
2012,07,14,05,48,12.30
2012,07,14,05,49,12.30
2012,07,14,05,50,12.30
2012,07,14,05,51,12.30
2012,07,14,05,52,12.30
2012,07,14,05,53,12.30
2012,07,14,05,54,12.30
2012,07,14,05,55,12.30
2012,07,14,05,56,12.30
2012,07,14,05,57,12.30
2012,07,14,05,58,12.30
2012,07,14,05,59,12.30
2012,07,14,06,00,12.30
2012,07,14,06,01,12.30
2012,07,14,06,02,12.30
2012,07,14,06,03,12.30
2012,07,14,06,04,12.30
2012,07,14,06,05,12.30
2012,07,14,06,06,12.30
2012,07,14,06,07,12.40
2012,07,14,06,08,12.40
2012,07,14,06,09,12.40
2012,07,14,06,10,12.40
2012,07,14,06,11,12.40
2012,07,14,06,12,12.40
2012,07,14,06,13,12.40
2012,07,14,06,14,12.40
2012,07,14,06,15,12.50
2012,07,14,06,16,12.50
2012,07,14,06,17,12.50
2012,07,14,06,18,12.50
2012,07,14,06,19,12.50
2012,07,14,06,20,12.50
2012,07,14,06,21,12.50
2012,07,14,06,22,12.50
2012,07,14,06,23,12.60
2012,07,14,06,24,12.60
2012,07,14,06,25,12.60
2012,07,14,06,26,12.60
2012,07,14,06,27,12.60
2012,07,14,06,28,12.70
2012,07,14,06,29,12.70
2012,07,14,06,30,12.70
2012,07,14,06,31,12.80
2012,07,14,06,32,12.80
2012,07,14,06,33,12.80
2012,07,14,06,34,12.80
2012,07,14,06,35,12.80
2012,07,14,06,36,12.90
2012,07,14,06,37,12.90
2012,07,14,06,38,13.00
2012,07,14,06,39,13.00
2012,07,14,06,40,13.10
2012,07,14,06,41,13.10
2012,07,14,06,42,13.20
2012,07,14,06,43,13.20
2012,07,14,06,44,13.30
2012,07,14,06,45,13.30
2012,07,14,06,46,13.40
2012,07,14,06,47,13.40
2012,07,14,06,48,13.50
2012,07,14,06,49,13.60
2012,07,14,06,50,13.70
2012,07,14,06,51,13.70
2012,07,14,06,52,13.70
2012,07,14,06,53,13.80
2012,07,14,06,54,13.80
2012,07,14,06,55,13.80
2012,07,14,06,56,13.90
2012,07,14,06,57,13.90
2012,07,14,06,58,13.90
2012,07,14,06,59,13.90
2012,07,14,07,00,14.00
2012,07,14,07,01,14.00
2012,07,14,07,02,14.00
2012,07,14,07,03,14.10
2012,07,14,07,04,14.10
2012,07,14,07,05,14.20
2012,07,14,07,06,14.30
2012,07,14,07,07,14.40
2012,07,14,07,08,14.50
2012,07,14,07,09,14.50
2012,07,14,07,10,14.60
2012,07,14,07,11,14.60
2012,07,14,07,12,14.60
2012,07,14,07,13,14.50
2012,07,14,07,14,14.50
2012,07,14,07,15,14.50
2012,07,14,07,16,14.50
2012,07,14,07,17,14.50
2012,07,14,07,18,14.60
2012,07,14,07,19,14.60
2012,07,14,07,20,14.70
2012,07,14,07,21,14.80
2012,07,14,07,22,15.00
2012,07,14,07,23,15.10
2012,07,14,07,24,15.20
2012,07,14,07,25,15.30
2012,07,14,07,26,15.30
2012,07,14,07,27,15.40
2012,07,14,07,28,15.40
2012,07,14,07,29,15.40
2012,07,14,07,30,15.30
2012,07,14,07,31,15.30
2012,07,14,07,32,15.30
2012,07,14,07,33,15.30
2012,07,14,07,34,15.30
2012,07,14,07,35,15.30
2012,07,14,07,36,15.30
2012,07,14,07,37,15.40
2012,07,14,07,38,15.50
2012,07,14,07,39,15.50
2012,07,14,07,40,15.60
2012,07,14,07,41,15.70
2012,07,14,07,42,15.80
2012,07,14,07,43,15.80
2012,07,14,07,44,15.80
2012,07,14,07,45,15.90
2012,07,14,07,46,15.90
2012,07,14,07,47,15.90
2012,07,14,07,48,16.00
2012,07,14,07,49,16.10
2012,07,14,07,50,16.20
2012,07,14,07,51,16.30
2012,07,14,07,52,16.40
2012,07,14,07,53,16.40
2012,07,14,07,54,16.40
2012,07,14,07,55,16.50
2012,07,14,07,56,16.60
2012,07,14,07,57,16.60
2012,07,14,07,58,16.70
2012,07,14,07,59,16.70
2012,07,14,08,00,16.80
2012,07,14,08,01,16.90
2012,07,14,08,02,17.00
2012,07,14,08,03,17.00
2012,07,14,08,04,17.10
2012,07,14,08,05,17.20
2012,07,14,08,06,17.20
2012,07,14,08,07,17.30
2012,07,14,08,08,17.30
2012,07,14,08,09,17.30
2012,07,14,08,10,17.30
2012,07,14,08,11,17.30
2012,07,14,08,12,17.40
2012,07,14,08,13,17.50
2012,07,14,08,14,17.60
2012,07,14,08,15,17.70
2012,07,14,08,16,17.70
2012,07,14,08,17,17.80
2012,07,14,08,18,17.80
2012,07,14,08,19,17.80
2012,07,14,08,20,17.80
2012,07,14,08,21,17.80
2012,07,14,08,22,17.90
2012,07,14,08,23,17.90
2012,07,14,08,24,17.90
2012,07,14,08,25,18.00
2012,07,14,08,26,18.10
2012,07,14,08,27,18.10
2012,07,14,08,28,18.10
2012,07,14,08,29,18.20
2012,07,14,08,30,18.20
2012,07,14,08,31,18.20
2012,07,14,08,32,18.20
2012,07,14,08,33,18.20
2012,07,14,08,34,18.20
2012,07,14,08,35,18.30
2012,07,14,08,36,18.40
2012,07,14,08,37,18.40
2012,07,14,08,38,18.50
2012,07,14,08,39,18.60
2012,07,14,08,40,18.60
2012,07,14,08,41,18.60
2012,07,14,08,42,18.70
2012,07,14,08,43,18.70
2012,07,14,08,44,18.80
2012,07,14,08,45,18.80
2012,07,14,08,46,18.80
2012,07,14,08,47,18.90
2012,07,14,08,48,18.90
2012,07,14,08,49,19.00
2012,07,14,08,50,19.10
2012,07,14,08,51,19.10
2012,07,14,08,52,19.20
2012,07,14,08,53,19.30
2012,07,14,08,54,19.40
2012,07,14,08,55,19.50
2012,07,14,08,56,19.50
2012,07,14,08,57,19.50
2012,07,14,08,58,19.60
2012,07,14,08,59,19.60
2012,07,14,09,00,19.70
2012,07,14,09,01,19.80
2012,07,14,09,02,19.90
2012,07,14,09,03,19.90
2012,07,14,09,04,20.10
2012,07,14,09,05,20.10
2012,07,14,09,06,20.20
2012,07,14,09,07,20.20
2012,07,14,09,08,20.20
2012,07,14,09,09,20.30
2012,07,14,09,10,20.30
2012,07,14,09,11,20.30
2012,07,14,09,12,20.40
2012,07,14,09,13,20.50
2012,07,14,09,14,20.50
2012,07,14,09,15,20.50
2012,07,14,09,16,20.50
2012,07,14,09,17,20.50
2012,07,14,09,18,20.60
2012,07,14,09,19,20.70
2012,07,14,09,20,20.70
2012,07,14,09,21,20.70
2012,07,14,09,22,20.80
2012,07,14,09,23,20.80
2012,07,14,09,24,20.90
2012,07,14,09,25,20.90
2012,07,14,09,26,20.90
2012,07,14,09,27,21.00
2012,07,14,09,28,21.00
2012,07,14,09,29,21.10
2012,07,14,09,30,21.00
2012,07,14,09,31,21.00
2012,07,14,09,32,21.00
2012,07,14,09,33,20.90
2012,07,14,09,34,20.90
2012,07,14,09,35,20.80
2012,07,14,09,36,20.80
2012,07,14,09,37,20.70
2012,07,14,09,38,20.70
2012,07,14,09,39,20.70
2012,07,14,09,40,20.70
2012,07,14,09,41,20.70
2012,07,14,09,42,20.70
2012,07,14,09,43,20.70
2012,07,14,09,44,20.70
2012,07,14,09,45,20.70
2012,07,14,09,46,20.70
2012,07,14,09,47,20.70
2012,07,14,09,48,20.60
2012,07,14,09,49,20.60
2012,07,14,09,50,20.70
2012,07,14,09,51,20.70
2012,07,14,09,52,20.80
2012,07,14,09,53,20.80
2012,07,14,09,54,20.80
2012,07,14,09,55,20.80
2012,07,14,09,56,20.90
2012,07,14,09,57,20.90
2012,07,14,09,58,21.00
2012,07,14,09,59,21.10
2012,07,14,10,00,21.20
2012,07,14,10,01,21.30
2012,07,14,10,02,21.30
2012,07,14,10,03,21.30
2012,07,14,10,04,21.30
2012,07,14,10,05,21.30
2012,07,14,10,06,21.30
2012,07,14,10,07,21.30
2012,07,14,10,08,21.40
2012,07,14,10,09,21.40
2012,07,14,10,10,21.40
2012,07,14,10,11,21.50
2012,07,14,10,12,21.60
2012,07,14,10,13,21.60
2012,07,14,10,14,21.70
2012,07,14,10,15,21.80
2012,07,14,10,16,21.90
2012,07,14,10,17,22.00
2012,07,14,10,18,22.00
2012,07,14,10,19,22.20
2012,07,14,10,20,22.20
2012,07,14,10,21,22.30
2012,07,14,10,22,22.50
2012,07,14,10,23,22.60
2012,07,14,10,24,22.70
2012,07,14,10,25,22.80
2012,07,14,10,26,22.80
2012,07,14,10,27,22.90
2012,07,14,10,28,22.90
2012,07,14,10,29,22.90
2012,07,14,10,30,22.90
2012,07,14,10,31,22.90
2012,07,14,10,32,22.90
2012,07,14,10,33,22.90
2012,07,14,10,34,22.90
2012,07,14,10,35,22.90
2012,07,14,10,36,22.80
2012,07,14,10,37,22.80
2012,07,14,10,38,22.70
2012,07,14,10,39,22.60
2012,07,14,10,40,22.60
2012,07,14,10,41,22.60
2012,07,14,10,42,22.60
2012,07,14,10,43,22.60
2012,07,14,10,44,22.60
2012,07,14,10,45,22.60
2012,07,14,10,46,22.70
2012,07,14,10,47,22.80
2012,07,14,10,48,22.80
2012,07,14,10,49,22.90
2012,07,14,10,50,23.00
2012,07,14,10,51,23.10
2012,07,14,10,52,23.10
2012,07,14,10,53,23.20
2012,07,14,10,54,23.20
2012,07,14,10,55,23.20
2012,07,14,10,56,23.00
2012,07,14,10,57,22.90
2012,07,14,10,58,22.80
2012,07,14,10,59,22.60
2012,07,14,11,00,22.50
2012,07,14,11,01,22.40
2012,07,14,11,02,22.30
2012,07,14,11,03,22.20
2012,07,14,11,04,22.10
2012,07,14,11,05,22.00
2012,07,14,11,06,22.00
2012,07,14,11,07,21.90
2012,07,14,11,08,21.90
2012,07,14,11,09,21.80
2012,07,14,11,10,21.80
2012,07,14,11,11,21.70
2012,07,14,11,12,21.60
2012,07,14,11,13,21.60
2012,07,14,11,14,21.60
2012,07,14,11,15,21.60
2012,07,14,11,16,21.60
2012,07,14,11,17,21.60
2012,07,14,11,18,21.60
2012,07,14,11,19,21.60
2012,07,14,11,20,21.60
2012,07,14,11,21,21.60
2012,07,14,11,22,21.60
2012,07,14,11,23,21.60
2012,07,14,11,24,21.60
2012,07,14,11,25,21.60
2012,07,14,11,26,21.60
2012,07,14,11,27,21.60
2012,07,14,11,28,21.60
2012,07,14,11,29,21.60
2012,07,14,11,30,21.60
2012,07,14,11,31,21.60
2012,07,14,11,32,21.50
2012,07,14,11,33,21.30
2012,07,14,11,34,21.30
2012,07,14,11,35,21.30
2012,07,14,11,36,21.30
2012,07,14,11,37,21.30
2012,07,14,11,38,21.30
2012,07,14,11,39,21.20
2012,07,14,11,40,21.20
2012,07,14,11,41,21.10
2012,07,14,11,42,21.10
2012,07,14,11,43,21.00
2012,07,14,11,44,21.00
2012,07,14,11,45,20.90
2012,07,14,11,46,20.80
2012,07,14,11,47,20.70
2012,07,14,11,48,20.70
2012,07,14,11,49,20.70
2012,07,14,11,50,20.70
2012,07,14,11,51,20.70
2012,07,14,11,52,20.80
2012,07,14,11,53,20.80
2012,07,14,11,54,20.80
2012,07,14,11,55,20.80
2012,07,14,11,56,20.90
2012,07,14,11,57,21.00
2012,07,14,11,58,21.00
2012,07,14,11,59,21.10
2012,07,14,12,00,21.10
2012,07,14,12,01,21.20
2012,07,14,12,02,21.30
2012,07,14,12,03,21.30
2012,07,14,12,04,21.30
2012,07,14,12,05,21.40
2012,07,14,12,06,21.50
2012,07,14,12,07,21.60
2012,07,14,12,08,21.60
2012,07,14,12,09,21.60
2012,07,14,12,10,21.60
2012,07,14,12,11,21.60
2012,07,14,12,12,21.60
2012,07,14,12,13,21.70
2012,07,14,12,14,21.70
2012,07,14,12,15,21.80
2012,07,14,12,16,21.90
2012,07,14,12,17,21.90
2012,07,14,12,18,21.90
2012,07,14,12,19,21.90
2012,07,14,12,20,22.00
2012,07,14,12,21,22.10
2012,07,14,12,22,22.10
2012,07,14,12,23,22.20
2012,07,14,12,24,22.20
2012,07,14,12,25,22.30
2012,07,14,12,26,22.30
2012,07,14,12,27,22.30
2012,07,14,12,28,22.40
2012,07,14,12,29,22.40
2012,07,14,12,30,22.40
2012,07,14,12,31,22.50
2012,07,14,12,32,22.50
2012,07,14,12,33,22.60
2012,07,14,12,34,22.60
2012,07,14,12,35,22.70
2012,07,14,12,36,22.80
2012,07,14,12,37,22.90
2012,07,14,12,38,22.80
2012,07,14,12,39,22.70
2012,07,14,12,40,22.60
2012,07,14,12,41,22.40
2012,07,14,12,42,22.30
2012,07,14,12,43,22.20
2012,07,14,12,44,22.30
2012,07,14,12,45,22.40
2012,07,14,12,46,22.40
2012,07,14,12,47,22.50
2012,07,14,12,48,22.50
2012,07,14,12,49,22.40
2012,07,14,12,50,22.30
2012,07,14,12,51,22.30
2012,07,14,12,52,22.30
2012,07,14,12,53,22.30
2012,07,14,12,54,22.30
2012,07,14,12,55,22.10
2012,07,14,12,56,22.10
2012,07,14,12,57,22.20
2012,07,14,12,58,22.30
2012,07,14,12,59,22.30
2012,07,14,13,00,22.50
2012,07,14,13,01,22.60
2012,07,14,13,02,22.70
2012,07,14,13,03,22.80
2012,07,14,13,04,22.80
2012,07,14,13,05,22.80
2012,07,14,13,06,22.70
2012,07,14,13,07,22.70
2012,07,14,13,08,22.70
2012,07,14,13,09,22.80
2012,07,14,13,10,22.80
2012,07,14,13,11,22.90
2012,07,14,13,12,23.00
2012,07,14,13,13,23.10
2012,07,14,13,14,23.20
2012,07,14,13,15,23.30
2012,07,14,13,16,23.30
2012,07,14,13,17,23.40
2012,07,14,13,18,23.60
2012,07,14,13,19,23.60
2012,07,14,13,20,23.60
2012,07,14,13,21,23.70
2012,07,14,13,22,23.70
2012,07,14,13,23,23.70
2012,07,14,13,24,23.70
2012,07,14,13,25,23.60
2012,07,14,13,26,23.60
2012,07,14,13,27,23.60
2012,07,14,13,28,23.60
2012,07,14,13,29,23.60
2012,07,14,13,30,23.60
2012,07,14,13,31,23.60
2012,07,14,13,32,23.60
2012,07,14,13,33,23.60
2012,07,14,13,34,23.60
2012,07,14,13,35,23.60
2012,07,14,13,36,23.60
2012,07,14,13,37,23.50
2012,07,14,13,38,23.40
2012,07,14,13,39,23.40
2012,07,14,13,40,23.40
2012,07,14,13,41,23.40
2012,07,14,13,42,23.50
2012,07,14,13,43,23.60
2012,07,14,13,44,23.60
2012,07,14,13,45,23.70
2012,07,14,13,46,23.70
2012,07,14,13,47,23.90
2012,07,14,13,48,23.90
2012,07,14,13,49,23.90
2012,07,14,13,50,24.10
2012,07,14,13,51,24.10
2012,07,14,13,52,24.30
2012,07,14,13,53,24.40
2012,07,14,13,54,24.40
2012,07,14,13,55,24.30
2012,07,14,13,56,24.30
2012,07,14,13,57,24.30
2012,07,14,13,58,24.20
2012,07,14,13,59,24.20
2012,07,14,14,00,24.10
2012,07,14,14,01,23.90
2012,07,14,14,02,23.90
2012,07,14,14,03,24.10
2012,07,14,14,04,24.10
2012,07,14,14,05,24.00
2012,07,14,14,06,23.90
2012,07,14,14,07,23.90
2012,07,14,14,08,23.90
2012,07,14,14,09,23.90
2012,07,14,14,10,24.00
2012,07,14,14,11,24.10
2012,07,14,14,12,24.10
2012,07,14,14,13,24.10
2012,07,14,14,14,24.10
2012,07,14,14,15,24.10
2012,07,14,14,16,24.10
2012,07,14,14,17,24.10
2012,07,14,14,18,24.10
2012,07,14,14,19,24.10
2012,07,14,14,20,24.10
2012,07,14,14,21,24.10
2012,07,14,14,22,24.10
2012,07,14,14,23,24.10
2012,07,14,14,24,24.10
2012,07,14,14,25,24.20
2012,07,14,14,26,24.30
2012,07,14,14,27,24.40
2012,07,14,14,28,24.60
2012,07,14,14,29,24.70
2012,07,14,14,30,24.70
2012,07,14,14,31,24.70
2012,07,14,14,32,24.60
2012,07,14,14,33,24.70
2012,07,14,14,34,24.70
2012,07,14,14,35,24.70
2012,07,14,14,36,24.70
2012,07,14,14,37,24.80
2012,07,14,14,38,24.80
2012,07,14,14,39,24.70
2012,07,14,14,40,24.60
2012,07,14,14,41,24.60
2012,07,14,14,42,24.50
2012,07,14,14,43,24.50
2012,07,14,14,44,24.50
2012,07,14,14,45,24.40
2012,07,14,14,46,24.20
2012,07,14,14,47,24.10
2012,07,14,14,48,24.10
2012,07,14,14,49,24.10
2012,07,14,14,50,24.10
2012,07,14,14,51,24.30
2012,07,14,14,52,24.30
2012,07,14,14,53,24.20
2012,07,14,14,54,24.10
2012,07,14,14,55,24.10
2012,07,14,14,56,24.10
2012,07,14,14,57,24.00
2012,07,14,14,58,23.90
2012,07,14,14,59,24.00
2012,07,14,15,00,24.10
2012,07,14,15,01,24.00
2012,07,14,15,02,23.90
2012,07,14,15,03,23.90
2012,07,14,15,04,24.00
2012,07,14,15,05,24.10
2012,07,14,15,06,24.30
2012,07,14,15,07,24.30
2012,07,14,15,08,24.30
2012,07,14,15,09,24.10
2012,07,14,15,10,24.10
2012,07,14,15,11,24.00
2012,07,14,15,12,23.90
2012,07,14,15,13,23.90
2012,07,14,15,14,23.90
2012,07,14,15,15,23.90
2012,07,14,15,16,23.90
2012,07,14,15,17,24.00
2012,07,14,15,18,23.80
2012,07,14,15,19,23.90
2012,07,14,15,20,24.00
2012,07,14,15,21,24.10
2012,07,14,15,22,24.10
2012,07,14,15,23,24.20
2012,07,14,15,24,24.20
2012,07,14,15,25,24.10
2012,07,14,15,26,24.10
2012,07,14,15,27,24.00
2012,07,14,15,28,23.90
2012,07,14,15,29,23.80
2012,07,14,15,30,23.80
2012,07,14,15,31,23.80
2012,07,14,15,32,23.80
2012,07,14,15,33,23.80
2012,07,14,15,34,23.80
2012,07,14,15,35,23.80
2012,07,14,15,36,23.90
2012,07,14,15,37,24.00
2012,07,14,15,38,24.10
2012,07,14,15,39,23.90
2012,07,14,15,40,23.90
2012,07,14,15,41,23.90
2012,07,14,15,42,23.90
2012,07,14,15,43,23.90
2012,07,14,15,44,23.70
2012,07,14,15,45,23.70
2012,07,14,15,46,23.70
2012,07,14,15,47,23.60
2012,07,14,15,48,23.60
2012,07,14,15,49,23.60
2012,07,14,15,50,23.60
2012,07,14,15,51,23.70
2012,07,14,15,52,23.70
2012,07,14,15,53,23.80
2012,07,14,15,54,24.00
2012,07,14,15,55,24.10
2012,07,14,15,56,24.10
2012,07,14,15,57,24.30
2012,07,14,15,58,24.40
2012,07,14,15,59,24.40
2012,07,14,16,00,24.30
2012,07,14,16,01,24.30
2012,07,14,16,02,24.30
2012,07,14,16,03,24.30
2012,07,14,16,04,24.30
2012,07,14,16,05,24.30
2012,07,14,16,06,24.20
2012,07,14,16,07,24.20
2012,07,14,16,08,24.00
2012,07,14,16,09,23.80
2012,07,14,16,10,23.80
2012,07,14,16,11,23.80
2012,07,14,16,12,23.70
2012,07,14,16,13,23.70
2012,07,14,16,14,23.70
2012,07,14,16,15,23.70
2012,07,14,16,16,23.80
2012,07,14,16,17,23.80
2012,07,14,16,18,24.00
2012,07,14,16,19,24.10
2012,07,14,16,20,24.10
2012,07,14,16,21,24.10
2012,07,14,16,22,24.10
2012,07,14,16,23,24.10
2012,07,14,16,24,24.10
2012,07,14,16,25,24.00
2012,07,14,16,26,23.90
2012,07,14,16,27,23.90
2012,07,14,16,28,24.00
2012,07,14,16,29,24.10
2012,07,14,16,30,24.20
2012,07,14,16,31,24.20
2012,07,14,16,32,24.30
2012,07,14,16,33,24.40
2012,07,14,16,34,24.50
2012,07,14,16,35,24.50
2012,07,14,16,36,24.50
2012,07,14,16,37,24.40
2012,07,14,16,38,24.30
2012,07,14,16,39,24.10
2012,07,14,16,40,24.10
2012,07,14,16,41,24.10
2012,07,14,16,42,24.00
2012,07,14,16,43,23.90
2012,07,14,16,44,23.80
2012,07,14,16,45,23.80
2012,07,14,16,46,23.80
2012,07,14,16,47,23.90
2012,07,14,16,48,23.90
2012,07,14,16,49,23.80
2012,07,14,16,50,23.80
2012,07,14,16,51,23.70
2012,07,14,16,52,23.70
2012,07,14,16,53,23.70
2012,07,14,16,54,23.70
2012,07,14,16,55,23.70
2012,07,14,16,56,23.70
2012,07,14,16,57,23.80
2012,07,14,16,58,23.90
2012,07,14,16,59,24.00
2012,07,14,17,00,24.10
2012,07,14,17,01,24.30
2012,07,14,17,02,24.40
2012,07,14,17,03,24.50
2012,07,14,17,04,24.50
2012,07,14,17,05,24.60
2012,07,14,17,06,24.70
2012,07,14,17,07,24.70
2012,07,14,17,08,24.60
2012,07,14,17,09,24.50
2012,07,14,17,10,24.50
2012,07,14,17,11,24.50
2012,07,14,17,12,24.60
2012,07,14,17,13,24.60
2012,07,14,17,14,24.60
2012,07,14,17,15,24.50
2012,07,14,17,16,24.40
2012,07,14,17,17,24.40
2012,07,14,17,18,24.40
2012,07,14,17,19,24.30